Вернуться в каталог

STARLINK-33989

АктивенСвязьVLEO
NORAD 63929·PAYLOAD·🇺🇸 United States

Запущен May 13, 2025 с Vandenberg Space Force Base

Loading…

Ближайшие Пролёты (ближайшие 24 часа)

TLE

СвежийSource: CelesTrak SupGP

Эпоха: Sep 14, 2026, 21:10 UTC

1 63929C 25098D   26257.88243056 -.00033765  00000+0 -11743-2 0  2571
2 63929  70.0005 155.8713 0003421 271.5912 353.9808 15.29602474    17

Отслеживайте STARLINK-33989 в реальном времени с AllMySat

Download on the App Store